EW6724 Weather Reports


time (UTC)temp
C
wind
direction
speed
KPH
gust
KPH
rain 1hr
cm
rain 24hr
cm
rain mn
cm
humidity
%
barometer
mb
20260506135004 13 0 0.0 0.0 0.00 0.00 0.00 88 1020.3
20260506134026 12 0 0.0 0.0 0.00 0.00 0.00 88 1020.3
20260506133004 12 0 0.0 0.0 0.00 0.00 0.00 88 1020.2
20260506132005 12 0 0.0 0.0 0.00 0.00 0.00 88 1020.1
20260506131004 12 181 0.0 3.2 0.00 0.00 0.00 88 1020.0
20260506130005 12 0 0.0 0.0 0.00 0.00 0.00 88 1020.0
20260506125004 12 0 0.0 0.0 0.00 0.00 0.00 88 1020.0
20260506124025 12 181 0.0 1.6 0.00 0.00 0.00 88 1019.9
20260506123004 12 0 0.0 3.2 0.00 0.00 0.00 88 1019.9
20260506122025 12 181 0.0 3.2 0.00 0.00 0.00 88 1019.8
20260506121004 12 177 0.0 4.8 0.00 0.00 0.00 87 1019.8
20260506120004 12 170 0.0 3.2 0.00 0.00 0.00 87 1019.8
20260506115025 12 164 0.0 3.2 0.00 0.00 0.00 87 1019.7
20260506114004 12 165 0.0 3.2 0.00 0.00 0.00 87 1019.7
20260506113004 12 165 0.0 3.2 0.00 0.00 0.00 87 1019.7
20260506112004 13 0 0.0 0.0 0.00 0.00 0.00 87 1019.6
20260506111004 13 175 0.0 3.2 0.00 0.00 0.00 87 1019.5
20260506110004 13 175 0.0 3.2 0.00 0.00 0.00 87 1019.4
20260506105004 13 175 0.0 1.6 0.00 0.00 0.00 87 1019.4
20260506104004 13 154 0.0 3.2 0.00 0.00 0.00 87 1019.3
20260506103004 13 146 0.0 3.2 0.00 0.00 0.00 87 1019.2
20260506102026 13 152 0.0 3.2 0.00 0.00 0.00 86 1019.2
20260506101025 13 164 0.0 3.2 0.00 0.00 0.00 87 1019.2
20260506100004 13 0 0.0 3.2 0.00 0.00 0.00 86 1019.1
20260506095025 13 0 0.0 0.0 0.00 0.00 0.00 86 1019.0
20260506094003 13 167 0.0 3.2 0.00 0.00 0.00 86 1019.1
20260506093004 13 168 0.0 3.2 0.00 0.00 0.00 87 1019.1
20260506092003 13 166 0.0 3.2 0.00 0.00 0.00 86 1019.1
20260506091024 13 166 0.0 4.8 0.00 0.00 0.00 86 1019.1
20260506090004 13 164 0.0 3.2 0.00 0.03 0.00 86 1019.2
20260506085003 13 172 0.0 3.2 0.00 0.03 0.00 86 1019.2
20260506084024 13 145 0.0 3.2 0.00 0.03 0.00 86 1019.2
20260506083004 13 167 0.0 4.8 0.00 0.03 0.00 86 1019.3
20260506082004 13 188 0.0 6.4 0.00 0.05 0.00 86 1019.1
20260506081024 13 177 0.0 4.8 0.00 0.05 0.00 86 1019.1
20260506073025 13 187 0.0 3.2 0.00 0.05 0.00 86 1018.9
20260506072003 13 175 0.0 3.2 0.00 0.05 0.00 86 1018.8
20260506071003 13 174 0.0 4.8 0.00 0.05 0.00 86 1018.6
20260506062003 13 166 0.0 6.4 0.00 0.08 0.05 85 1018.3
20260506061003 13 96 0.0 4.8 0.00 0.18 0.05 84 1018.1
20260506051003 13 153 0.0 6.4 0.00 0.18 0.05 83 1017.8
20260506045024 13 164 1.6 8.0 0.00 0.18 0.05 82 1017.7
20260506044003 14 147 0.0 3.2 0.00 0.18 0.05 82 1017.5
20260506043006 14 169 0.0 4.8 0.00 0.18 0.05 81 1017.1
20260506042027 14 170 1.6 8.0 0.00 0.18 0.05 80 1016.9
20260506041006 14 167 1.6 6.4 0.00 0.18 0.05 79 1016.7
20260506040006 15 172 1.6 8.0 0.00 0.18 0.05 77 1016.6
20260506035006 15 170 1.6 6.4 0.00 0.18 0.05 76 1016.6
20260506034006 15 170 1.6 6.4 0.00 0.18 0.05 75 1016.3
20260506033006 15 170 1.6 4.8 0.00 0.18 0.05 74 1016.2
20260506032006 15 177 1.6 8.0 0.00 0.18 0.05 73 1015.9
20260506031006 16 175 1.6 3.2 0.00 0.18 0.05 73 1015.8
20260506030027 16 166 1.6 4.8 0.00 0.18 0.05 72 1015.8
20260506025027 16 184 0.0 6.4 0.00 0.18 0.05 72 1015.6
20260506024006 16 184 1.6 4.8 0.00 0.18 0.05 71 1015.6
20260506023006 17 170 0.0 3.2 0.00 0.18 0.05 70 1015.6
20260506022005 17 179 0.0 6.4 0.00 0.20 0.05 69 1015.4
20260506021006 17 166 1.6 6.4 0.00 0.20 0.05 68 1015.4
20260506020006 18 204 0.0 3.2 0.00 0.23 0.05 67 1015.2
20260506015006 18 175 0.0 4.8 0.00 0.28 0.05 66 1015.1
20260506014005 18 206 0.0 4.8 0.00 0.30 0.05 65 1015.1
20260506013006 19 176 0.0 8.0 0.00 0.33 0.05 64 1015.0
20260506012005 20 169 1.6 3.2 0.00 0.33 0.05 63 1014.9
20260506011005 19 210 0.0 3.2 0.00 0.36 0.05 64 1014.9
20260506010006 18 250 1.6 11.3 0.00 0.38 0.05 66 1014.9
20260506005006 18 247 1.6 6.4 0.00 0.38 0.05 67 1014.9
20260506004026 18 250 1.6 11.3 0.00 0.38 0.05 66 1014.9
20260506003005 18 216 1.6 4.8 0.00 0.41 0.05 67 1014.8
20260506002006 18 250 1.6 6.4 0.00 0.43 0.05 67 1014.7
20260506001006 18 248 1.6 6.4 0.00 0.43 0.05 65 1014.6
20260506000005 18 261 1.6 6.4 0.00 0.46 0.05 66 1014.6
20260505235005 19 254 1.6 11.3 0.00 0.46 0.05 65 1014.5
20260505234005 19 171 0.0 4.8 0.00 0.48 0.05 66 1014.5
20260505233005 20 196 1.6 6.4 0.00 0.48 0.05 66 1014.4
20260505232005 20 196 0.0 3.2 0.00 0.51 0.05 66 1014.5
20260505231005 20 184 0.0 3.2 0.00 0.51 0.05 65 1014.5
20260505230005 20 122 1.6 4.8 0.00 0.53 0.05 65 1014.5
20260505225006 20 214 0.0 6.4 0.00 0.56 0.05 65 1014.6
20260505224026 20 246 1.6 4.8 0.00 0.58 0.05 66 1014.7
20260505223027 20 248 1.6 6.4 0.00 0.64 0.05 64 1014.7
20260505222005 20 166 1.6 4.8 0.00 0.66 0.05 65 1014.8
20260505221005 20 157 0.0 3.2 0.00 0.69 0.05 65 1014.8
20260505220005 20 126 1.6 4.8 0.00 0.71 0.05 64 1014.9
20260505215005 20 161 0.0 4.8 0.00 0.74 0.05 66 1015.0
20260505214005 19 110 0.0 3.2 0.00 0.76 0.05 66 1015.1
20260505213005 18 217 0.0 3.2 0.00 0.79 0.05 68 1015.4
20260505212026 18 210 0.0 4.8 0.00 0.79 0.05 67 1015.6
20260505211005 18 262 0.0 4.8 0.00 0.79 0.05 68 1015.6
20260505210005 18 211 0.0 3.2 0.00 0.79 0.05 69 1015.6
20260505205005 18 257 0.0 3.2 0.00 0.79 0.05 69 1015.7
20260505204005 17 265 1.6 4.8 0.00 0.79 0.05 70 1015.6
20260505203026 17 252 0.0 3.2 0.00 0.79 0.05 71 1015.7
20260505202005 17 189 0.0 3.2 0.00 0.79 0.05 70 1015.7
20260505201005 17 254 0.0 3.2 0.00 0.79 0.05 70 1015.7
20260505200005 17 245 0.0 3.2 0.00 0.79 0.05 71 1015.8
20260505195005 17 247 0.0 3.2 0.00 0.79 0.05 70 1015.8
20260505194005 17 256 0.0 4.8 0.00 0.79 0.05 70 1015.8
20260505193005 17 132 0.0 3.2 0.00 0.79 0.05 69 1015.8
20260505192005 17 174 0.0 3.2 0.00 0.79 0.05 71 1015.9
20260505191005 17 292 0.0 4.8 0.00 0.79 0.05 72 1015.8
20260505190005 17 248 0.0 3.2 0.00 0.79 0.05 70 1015.8
20260505185005 17 214 0.0 3.2 0.00 0.79 0.05 71 1015.8
20260505184005 17 218 0.0 4.8 0.00 0.79 0.05 72 1015.8
20260505183005 16 238 1.6 4.8 0.00 0.79 0.05 73 1015.8
20260505182005 16 236 1.6 4.8 0.00 0.79 0.05 73 1015.7
20260505181005 17 261 1.6 6.4 0.00 0.79 0.05 73 1015.7
20260505180005 17 112 1.6 3.2 0.00 0.79 0.05 73 1015.7
20260505175005 16 122 1.6 4.8 0.00 0.79 0.05 74 1015.6
20260505174005 16 169 1.6 6.4 0.00 0.79 0.05 74 1015.5
20260505173005 16 139 0.0 3.2 0.00 0.79 0.05 76 1015.4
20260505172005 16 107 0.0 3.2 0.00 0.79 0.05 77 1015.4
20260505171005 16 89 0.0 4.8 0.00 0.79 0.05 79 1015.3
20260505170026 15 31 1.6 8.0 0.00 0.79 0.05 76 1015.5
20260505165005 16 84 1.6 4.8 0.00 0.79 0.05 75 1015.5
20260505164005 16 59 1.6 6.4 0.00 0.79 0.05 78 1015.4
20260505163005 15 323 0.0 3.2 0.00 0.79 0.05 80 1015.3
20260505162005 15 69 0.0 3.2 0.00 0.79 0.05 78 1015.2
20260505161005 15 99 0.0 3.2 0.00 0.79 0.05 83 1015.1
20260505153005 13 95 0.0 3.2 0.00 0.79 0.05 89 1015.1
20260505152005 13 142 0.0 3.2 0.00 0.79 0.05 91 1015.1
20260505151004 12 170 0.0 3.2 0.00 0.79 0.05 91 1014.9